Weather History for Grand Marais, MN

Change the Weather History Date:

Monday, November 5, 2012

  Actual Average (KCKC) Record (KCKC)
Temperature  
Mean Temperature 34 °F -  
Max Temperature 39 °F 35 °F 55 °F (2001)
Min Temperature 32 °F 24 °F 17 °F (1997)
Degree Days  
Heating Degree Days 30    
Moisture  
Dew Point 25 °F    
Average Humidity 66    
Maximum Humidity 70    
Minimum Humidity 59    
Precipitation  
Precipitation 0.00 in - - ()
Sea Level Pressure  
Sea Level Pressure 30.22 in    
Wind  
Wind Speed 4 mph (East)    
Max Wind Speed 7 mph    
Max Gust Speed -    
Averages and records for this station are not official NWS values.
T = Trace of Precipitation, MM = Missing Value Source: NWS Daily Summary

Daily Weather History Graph

Daily Weather History Graph

Search for Another Location

Airport:

Trip Planner

Search our weather history database for the weather conditions in past years. The results will help you decide how hot, cold, wet, or windy it might be!

Date:

Astronomy

Nov. 05, 2012 Rise Set
Actual Time 6:52 AM CST 4:36 PM CST
Civil Twilight 6:19 AM CST 5:09 PM CST
Nautical Twilight 5:43 AM CST 5:46 PM CST
Astronomical Twilight 5:07 AM CST 6:22 PM CST
Moon 10:14 PM CST (11/5) 12:12 PM CST (11/5)
Length of Visible Light 10h 49m
Length of Day
9h 44m
Waning Gibbous, 62% of the Moon is Illuminated
Nov 5
Waning Gibbous
Nov 6
Last Quarter
Nov 13
New
Nov 20
First Quarter
Nov 28
Full

Hourly Weather History & Observations

Time (CST) Temp. Windchill Dew Point Humidity Pressure Visibility Wind Dir Wind Speed Gust Speed Precip Events Conditions
12:56 AM 32.0 °F 27.5 °F 21.9 °F 66% 30.34 in - Variable 4.6 mph - N/A   Unknown
1:56 AM 33.1 °F 30.0 °F 21.9 °F 64% 30.34 in - NNE 3.5 mph - N/A   Unknown
2:56 AM 33.1 °F 28.7 °F 21.9 °F 64% 30.33 in - NNW 4.6 mph - N/A   Unknown
3:56 AM 33.1 °F 28.7 °F 21.9 °F 64% 30.32 in - NNW 4.6 mph - N/A   Unknown
4:56 AM 33.1 °F 28.7 °F 21.9 °F 64% 30.32 in - NNW 4.6 mph - N/A   Unknown
5:56 AM 33.1 °F 30.0 °F 23.0 °F 66% 30.32 in - North 3.5 mph - N/A   Unknown
6:56 AM 33.1 °F 30.0 °F 23.0 °F 66% 30.31 in - NNW 3.5 mph - N/A   Unknown
7:56 AM 34.0 °F 31.0 °F 24.1 °F 67% 30.31 in - NNW 3.5 mph - N/A   Unknown
8:56 AM 36.0 °F - 24.1 °F 62% 30.30 in - Calm Calm - N/A   Unknown
9:56 AM 37.0 °F - 24.1 °F 59% 30.30 in - Calm Calm - N/A   Unknown
10:56 AM 37.0 °F - 25.0 °F 62% 30.29 in - Calm Calm - N/A   Unknown
11:56 AM 37.0 °F 34.5 °F 27.0 °F 67% 30.26 in - ESE 3.5 mph - N/A   Unknown
12:56 PM 37.9 °F 33.5 °F 28.9 °F 70% 30.23 in - SSE 5.8 mph - N/A   Unknown
1:56 PM 37.0 °F - 28.0 °F 70% 30.22 in - Calm Calm - N/A   Unknown
2:56 PM 37.0 °F 34.5 °F 26.1 °F 65% 30.19 in - South 3.5 mph - N/A   Unknown
3:56 PM 37.0 °F 32.4 °F 26.1 °F 65% 30.17 in - SSW 5.8 mph - N/A   Unknown
4:56 PM 37.0 °F 33.3 °F 26.1 °F 65% 30.16 in - SSE 4.6 mph - N/A   Unknown
5:56 PM 36.0 °F 31.1 °F 25.0 °F 64% 30.15 in - SSE 5.8 mph - N/A   Unknown
6:56 PM 36.0 °F 33.3 °F 25.0 °F 64% 30.13 in - Variable 3.5 mph - N/A   Unknown
7:56 PM 36.0 °F 33.3 °F 26.1 °F 67% 30.10 in - East 3.5 mph - N/A   Unknown
8:56 PM 37.0 °F 33.3 °F 28.0 °F 70% 30.07 in - Variable 4.6 mph - N/A   Unknown
9:56 PM 37.9 °F 32.7 °F 28.0 °F 68% 30.04 in - South 6.9 mph - N/A   Unknown
10:56 PM 37.9 °F 34.4 °F 28.9 °F 70% 30.01 in - East 4.6 mph - N/A   Unknown
11:56 PM 39.0 °F 34.8 °F 30.0 °F 70% 29.98 in - ESE 5.8 mph - N/A   Unknown